Weather History for Guatemala Aeropuertola Aurora, Guatemala

Change the Weather History Date:

Saturday, July 27, 2013

  Actual Average Record
Temperature  
Mean Temperature 70 °F -  
Max Temperature 79 °F 75 °F - ()
Min Temperature 61 °F 60 °F - ()
Cooling Degree Days 5    
Growing Degree Days 20 (Base 50)    
Moisture  
Dew Point 57 °F    
Average Humidity 68    
Maximum Humidity 94    
Minimum Humidity 34    
Precipitation  
Precipitation 0.00 in - - ()
Sea Level Pressure  
Sea Level Pressure 30.28 in    
Wind  
Wind Speed 13 mph ()    
Max Wind Speed 21 mph    
Max Gust Speed -    
Visibility 6.2 miles    
Events      
T = Trace of Precipitation, MM = Missing Value Source: Averaged Metar Reports

Daily Weather History Graph

Daily Weather History Graph

Search for Another Location

Airport:

Trip Planner

Search our weather history database for the weather conditions in past years. The results will help you decide how hot, cold, wet, or windy it might be!

Date:

Astronomy

Jul. 27, 2013 Rise Set
Actual Time 5:44 AM CST 6:32 PM CST
Civil Twilight 5:21 AM CST 6:55 PM CST
Nautical Twilight 4:54 AM CST 7:22 PM CST
Astronomical Twilight 4:27 AM CST 7:49 PM CST
Moon 10:28 PM CST (7/27) 10:20 AM CST (7/27)
Length of Visible Light 13h 34m
Length of Day
12h 48m
Waning Gibbous, 70% of the Moon is Illuminated
Jul 27
Waning Gibbous
Jul 29
Last Quarter
Aug 6
New
Aug 14
First Quarter
Aug 20
Full

Hourly Weather History & Observations

Time (CST) Temp. Dew Point Humidity Pressure Visibility Wind Dir Wind Speed Gust Speed Precip Events Conditions
12:00 AM 66.2 °F 60.8 °F 83% 30.36 in 6.2 mi North 11.5 mph - N/A   Scattered Clouds
1:00 AM 64.4 °F 60.8 °F 88% 30.36 in 6.2 mi North 13.8 mph - N/A   Mostly Cloudy
2:00 AM 64.4 °F 60.8 °F 88% 30.33 in 6.2 mi North 13.8 mph - N/A   Scattered Clouds
3:00 AM 64.4 °F 60.8 °F 88% 30.33 in 6.2 mi North 11.5 mph - N/A   Mostly Cloudy
4:00 AM 62.6 °F 60.8 °F 94% 30.33 in 6.2 mi North 16.1 mph - N/A   Mostly Cloudy
5:00 AM 62.6 °F 60.8 °F 94% 30.33 in 6.2 mi North 11.5 mph - N/A   Mostly Cloudy
6:00 AM 62 °F 60 °F 92% 30.00 in 25 mi North 11.5 mph - -   Partly Cloudy
6:00 AM 62.6 °F 60.8 °F 94% 30.33 in 6.2 mi North 11.5 mph - N/A   Scattered Clouds
7:00 AM 62.6 °F 60.8 °F 94% 30.33 in 6.2 mi North 16.1 mph - N/A   Mostly Cloudy
8:00 AM 66.2 °F 59.0 °F 78% 30.33 in 6.2 mi NNE 13.8 mph - N/A   Mostly Cloudy
9:00 AM 69.8 °F 60.8 °F 73% 30.33 in 6.2 mi North 13.8 mph - N/A   Mostly Cloudy
10:00 AM 71.6 °F 53.6 °F 53% 30.33 in - North 16.1 mph - N/A   Clear
11:00 AM 75.2 °F 55.4 °F 50% 30.33 in - NNE 18.4 mph - N/A   Clear
12:00 PM 77.0 °F 55.4 °F 47% 30.30 in - North 13.8 mph - N/A   Clear
1:00 PM 77.0 °F 55.4 °F 47% 30.30 in - North 16.1 mph - N/A   Clear
2:00 PM 78.8 °F 55.4 °F 44% 30.27 in 6.2 mi North 16.1 mph - N/A   Scattered Clouds
3:00 PM 77.0 °F 51.8 °F 41% 30.27 in 6.2 mi NNE 16.1 mph - N/A   Mostly Cloudy
4:00 PM 78.8 °F 48.2 °F 34% 30.24 in 6.2 mi NNE 16.1 mph - N/A   Partly Cloudy
5:00 PM 77.0 °F 50.0 °F 39% 30.24 in 6.2 mi North 11.5 mph - N/A   Partly Cloudy
6:00 PM 74 °F 55 °F 42% 29.91 in 25 mi NNE 20.7 mph - -   Scattered Clouds
6:00 PM 73.4 °F 55.4 °F 53% 30.24 in 6.2 mi NNE 20.7 mph - N/A   Partly Cloudy
7:00 PM 71.6 °F 57.2 °F 60% 30.27 in 6.2 mi North 18.4 mph - N/A   Partly Cloudy
8:00 PM 69.8 °F 57.2 °F 64% 30.30 in - North 16.1 mph - N/A   Clear
9:00 PM 68.0 °F 59.0 °F 73% 30.30 in - NNE 13.8 mph - N/A   Clear
10:00 PM 66.2 °F 59.0 °F 78% 30.30 in 6.2 mi North 13.8 mph - N/A   Partly Cloudy
11:00 PM 66.2 °F 59.0 °F 78% 30.33 in 6.2 mi North 11.5 mph - N/A   Partly Cloudy